STARLINK-34223 (64336 NORAD) Tracking and Keplerian Element Data

This shows tracking and keplerian element data for the satellite.

Feedback or suggestion? Click here.




ElementValue
Catalog64336
NameSTARLINK-34223
Epoch Orbit2963
Epoch Day353.98111077
Epoch Year2025
RAAN208.0883
Inclination43.0023
Eccentricity0.0002448
Argument of Perigee286.3359
Mean Anonmoly73.7223
Mean Motion15.27592996
Decay Rate0.00012507
L11 64336U 25124V 25353.98111077 .00012507 00000+0 46306-3 0 9994
L22 64336 43.0023 208.0883 0002448 286.3359 73.7223 15.27592996 29638



Live tracking and technical data element details for STARLINK-34223 (NORAD 64336). STARLINK-34223 can be tracked NOW for your location showing map with azimuth and elevation plus other details from your city location.







IsCatalogInMostPopularTable: catalog: 64336, numindb: 3
Update: records affected: 1



GetName: 64336 STARLINK-34223

Hit Count: updated at: Sun, 08 Feb 2026 09:07:56 GMT